Mitchell, SD

12:11 AM CDT on May 22, 2018 (GMT -0500)
Mitchell Municipal

Weather History for KMHE - July, 2013

Change the Weather History Date:

Saturday, July 13, 2013

  Actual Average Record
Temperature  
Mean Temperature 82 °F 75 °F  
Max Temperature 89 °F 87 °F 106 °F (1954)
Min Temperature 75 °F 63 °F 40 °F (1900)
Degree Days  
Heating Degree Days 0 0  
Month to date heating degree days 0 0  
Since 1 June heating degree days 50 35  
Since 1 July heating degree days 0 0  
Cooling Degree Days 17 10  
Month to date cooling degree days 156 128  
Year to date cooling degree days 380 338  
Since 1 June cooling degree days 323 298  
Growing Degree Days 32 (Base 50)    
Moisture  
Dew Point 73 °F    
Average Humidity 80    
Maximum Humidity 94    
Minimum Humidity 63    
Precipitation  
Precipitation T in 0.09 in 1.50 in (1904)
Month to date precipitation 2.10 1.42  
Year to date precipitation 14.19 12.28  
Snow  
Snow 0.00 in - 0.00 in ()
Month to date snowfall 0.0  
Since 1 June snowfall 0.0  
Since 1 July snowfall 0.0  
Snow Depth 0.00 in    
Sea Level Pressure  
Sea Level Pressure 29.86 in    
Wind  
Wind Speed 6 mph (ESE)    
Max Wind Speed 30 mph    
Max Gust Speed 32 mph    
Visibility 9 miles    
Events      
T = Trace of Precipitation, MM = Missing Value Source: NWS Daily Summary

Daily Weather History Graph

Daily Weather History Graph

Search for Another Location

Airport or City:

Astronomy

Jul. 13, 2013 Rise Set
Actual Time 6:02 AM CDT 9:12 PM CDT
Civil Twilight 5:27 AM CDT 9:47 PM CDT
Nautical Twilight 4:42 AM CDT 10:32 PM CDT
Astronomical Twilight 3:47 AM CDT 11:26 PM CDT
Moon 11:32 AM CDT (7/13) 11:41 PM CDT (7/13)
Length of Visible Light 16h 20m
Length of Day
15h 10m
Waxing Crescent, 26% of the Moon is Illuminated
Jul 13
Waxing Crescent
Jul 15
First Quarter
Jul 22
Full
Jul 29
Last Quarter
Aug 6
New

Hourly Weather History & Observations

Time (CDT) Temp. Heat Index Dew Point Humidity Pressure Visibility Wind Dir Wind Speed Gust Speed Precip Events Conditions
12:53 AM 81.0 °F 85.8 °F 73.0 °F 77% 29.84 in 10.0 mi SSE 8.1 mph - N/A   Scattered Clouds
1:53 AM 82.0 °F 86.7 °F 72.0 °F 71% 29.84 in 10.0 mi South 4.6 mph - N/A   Partly Cloudy
2:53 AM 79.0 °F - 73.0 °F 82% 29.84 in 10.0 mi WNW 3.5 mph - N/A   Clear
3:53 AM 80.1 °F 83.8 °F 72.0 °F 76% 29.83 in 10.0 mi SSW 3.5 mph - N/A   Clear
4:53 AM 78.1 °F - 73.0 °F 84% 29.83 in 10.0 mi SE 4.6 mph - N/A   Clear
5:53 AM 78.1 °F - 72.0 °F 81% 29.85 in 10.0 mi WSW 4.6 mph - N/A   Clear
6:53 AM 75.9 °F - 73.0 °F 91% 29.84 in 6.0 mi Calm Calm - N/A   Clear
7:29 AM 75.2 °F - 73.4 °F 94% 29.92 in 8.0 mi WNW 6.9 mph - N/A   Scattered Clouds
7:42 AM 75.2 °F - 73.4 °F 94% 29.90 in 8.0 mi NNW 6.9 mph - N/A   Mostly Cloudy
7:53 AM 75.0 °F - 73.0 °F 94% 29.86 in 7.0 mi North 6.9 mph - N/A   Mostly Cloudy
8:00 AM 75.2 °F - 71.6 °F 89% 29.88 in 8.0 mi West 16.1 mph 26.5 mph N/A   Scattered Clouds
8:09 AM 75.2 °F - 71.6 °F 89% 29.87 in 8.0 mi NE 10.4 mph 27.6 mph N/A   Mostly Cloudy
8:50 AM 77.0 °F - 73.4 °F 89% 29.87 in 9.0 mi East 9.2 mph - N/A   Scattered Clouds
8:53 AM 77.0 °F - 73.0 °F 88% 29.84 in 9.0 mi East 9.2 mph - N/A   Scattered Clouds
9:53 AM 79.0 °F - 71.1 °F 77% 29.85 in 10.0 mi SE 6.9 mph - N/A   Clear
10:53 AM 79.0 °F - 72.0 °F 79% 29.88 in 10.0 mi SW 4.6 mph - N/A   Clear
11:53 AM 82.0 °F 86.7 °F 72.0 °F 71% 29.88 in 10.0 mi NE 3.5 mph - N/A   Clear
12:53 PM 81.0 °F 85.2 °F 72.0 °F 74% 29.89 in 10.0 mi East 3.5 mph - N/A   Clear
1:53 PM 82.0 °F 87.4 °F 73.0 °F 74% 29.88 in 10.0 mi East 4.6 mph - 0.00 in   Clear
2:53 PM 84.0 °F 91.9 °F 75.0 °F 74% 29.87 in 10.0 mi ENE 5.8 mph - N/A   Clear
3:11 PM 84.2 °F 90.9 °F 73.4 °F 70% 29.90 in 10.0 mi East 3.5 mph - N/A   Partly Cloudy
3:53 PM 86.0 °F 93.8 °F 73.9 °F 67% 29.87 in 10.0 mi ESE 5.8 mph - N/A   Clear
4:53 PM 88.0 °F 96.5 °F 73.9 °F 63% 29.86 in 10.0 mi SE 9.2 mph - N/A   Clear
5:53 PM 87.1 °F 96.3 °F 75.0 °F 67% 29.85 in 10.0 mi ESE 10.4 mph - N/A   Partly Cloudy
6:53 PM 84.9 °F 94.1 °F 75.9 °F 74% 29.85 in 10.0 mi East 5.8 mph - N/A   Clear
7:53 PM 86.0 °F 96.0 °F 75.9 °F 72% 29.84 in 10.0 mi ESE 5.8 mph - N/A   Clear
8:53 PM 82.9 °F 91.8 °F 77.0 °F 82% 29.83 in 10.0 mi ESE 4.6 mph - N/A   Clear
9:53 PM 80.1 °F 85.4 °F 75.9 °F 87% 29.85 in 10.0 mi ESE 4.6 mph - N/A   Clear
10:53 PM 80.1 °F 85.1 °F 75.0 °F 85% 29.88 in 10.0 mi SE 8.1 mph - N/A   Clear
11:53 PM 80.1 °F 83.8 °F 72.0 °F 76% 29.89 in 10.0 mi SE 10.4 mph - N/A   Partly Cloudy